• In Russia
  • List of Countries
  • For 7 days
  • Water Temperature
  • Satellite Maps
  • Weather Map
  • Weather Widgets
  • user-avatar
    Login

    Hourly Weather Mingachevir

    Today, 9 December, Friday

    Time Temperature Precipitation Wind Pressure Humidity
    00:00 -2°C° 0 mm 1 mps 765 mmHg 81%
    01:00 -2°C° 0 mm 1 mps 764 mmHg 81%
    02:00 -2°C° 0 mm 1 mps 763 mmHg 80%
    03:00 -2°C° 0 mm 1 mps 763 mmHg 79%
    04:00 -2°C° 0 mm 1 mps 762 mmHg 76%
    05:00 -3°C° 0 mm 2 mps 761 mmHg 74%
    06:00 -3°C° 0 mm 2 mps 761 mmHg 71%
    07:00 -2°C° 0 mm 3 mps 760 mmHg 64%
    08:00 -1°C° 0 mm 3 mps 759 mmHg 57%
    09:00 -1°C° 0 mm 4 mps 758 mmHg 49%
    10:00 0°C° 0 mm 5 mps 757 mmHg 45%
    11:00 +2°C° 0 mm 5 mps 756 mmHg 41%
    12:00 +3°C° 0 mm 6 mps 755 mmHg 37%
    13:00 +3°C° 0 mm 6 mps 755 mmHg 38%
    14:00 +3°C° 0 mm 6 mps 754 mmHg 40%
    15:00 +3°C° 0 mm 5 mps 754 mmHg 41%
    16:00 +2°C° 0 mm 5 mps 754 mmHg 44%
    17:00 +1°C° 0 mm 4 mps 754 mmHg 47%
    18:00 0°C° 0 mm 4 mps 754 mmHg 50%
    19:00 0°C° 0 mm 4 mps 755 mmHg 52%
    20:00 0°C° 0 mm 4 mps 755 mmHg 54%
    21:00 0°C° 0 mm 4 mps 755 mmHg 55%
    22:00 0°C° 0 mm 4 mps 755 mmHg 57%
    23:00 +1°C° 0 mm 3 mps 755 mmHg 58%

    Tomorrow, 10 December, Saturday

    Time Temperature Precipitation Wind Pressure Humidity
    00:00 0°C° 0 mm 3 mps 755 mmHg 59%
    01:00 0°C° 0 mm 3 mps 755 mmHg 59%
    02:00 0°C° 0 mm 3 mps 754 mmHg 59%
    03:00 0°C° 0 mm 3 mps 754 mmHg 60%
    04:00 0°C° 0 mm 3 mps 754 mmHg 60%
    05:00 0°C° 0 mm 3 mps 754 mmHg 59%
    06:00 0°C° 0 mm 3 mps 754 mmHg 59%
    07:00 +2°C° 0 mm 3 mps 754 mmHg 55%
    08:00 +3°C° 0 mm 3 mps 754 mmHg 52%
    09:00 +4°C° 0 mm 3 mps 753 mmHg 48%
    10:00 +7°C° 0 mm 3 mps 753 mmHg 46%
    11:00 +7°C° 0 mm 4 mps 752 mmHg 43%
    12:00 +8°C° 0 mm 4 mps 751 mmHg 41%
    13:00 +8°C° 0 mm 4 mps 751 mmHg 43%
    14:00 +8°C° 0 mm 4 mps 751 mmHg 45%
    15:00 +8°C° 0 mm 4 mps 750 mmHg 47%
    16:00 +7°C° 0 mm 4 mps 750 mmHg 50%
    17:00 +6°C° 0 mm 4 mps 751 mmHg 53%
    18:00 +5°C° 0 mm 4 mps 751 mmHg 56%
    19:00 +5°C° 0 mm 4 mps 751 mmHg 57%
    20:00 +4°C° 0 mm 4 mps 751 mmHg 58%
    21:00 +4°C° 0 mm 4 mps 751 mmHg 59%
    22:00 +4°C° 0 mm 4 mps 751 mmHg 59%
    23:00 +4°C° 0 mm 4 mps 751 mmHg 59%

    Day after tomorrow, 11 December, Sunday

    Time Temperature Precipitation Wind Pressure Humidity
    00:00 +4°C° 0 mm 4 mps 751 mmHg 59%
    01:00 +4°C° 0 mm 4 mps 751 mmHg 60%
    02:00 +4°C° 0 mm 4 mps 752 mmHg 60%
    03:00 +3°C° 0 mm 4 mps 752 mmHg 61%
    04:00 +3°C° 0 mm 4 mps 752 mmHg 61%
    05:00 +3°C° 0 mm 4 mps 752 mmHg 61%
    06:00 +3°C° 0 mm 3 mps 752 mmHg 62%
    07:00 +4°C° 0 mm 3 mps 752 mmHg 58%
    08:00 +5°C° 0 mm 3 mps 753 mmHg 55%
    09:00 +7°C° 0 mm 3 mps 753 mmHg 51%
    10:00 +7°C° 0 mm 4 mps 752 mmHg 49%
    11:00 +8°C° 0 mm 4 mps 752 mmHg 46%
    12:00 +9°C° 0 mm 5 mps 752 mmHg 44%
    13:00 +9°C° 0 mm 5 mps 751 mmHg 46%
    14:00 +9°C° 0 mm 5 mps 751 mmHg 48%
    15:00 +10°C° 0 mm 4 mps 751 mmHg 50%
    16:00 +7°C° 0 mm 4 mps 751 mmHg 54%
    17:00 +6°C° 0 mm 4 mps 752 mmHg 58%
    18:00 +5°C° 0 mm 4 mps 752 mmHg 62%
    19:00 +5°C° 0 mm 4 mps 752 mmHg 61%
    20:00 +5°C° 0 mm 4 mps 752 mmHg 60%
    21:00 +4°C° 0 mm 4 mps 753 mmHg 59%
    22:00 +4°C° 0 mm 4 mps 753 mmHg 59%
    23:00 +4°C° 0 mm 3 mps 753 mmHg 59%

    12 December, Monday

    Time Temperature Precipitation Wind Pressure Humidity
    00:00 +4°C° 0 mm 3 mps 753 mmHg 59%
    01:00 +4°C° 0 mm 4 mps 753 mmHg 59%
    02:00 +4°C° 0 mm 4 mps 753 mmHg 58%
    03:00 +4°C° 0 mm 4 mps 753 mmHg 58%
    04:00 +4°C° 0 mm 4 mps 753 mmHg 58%
    05:00 +4°C° 0 mm 4 mps 753 mmHg 58%
    06:00 +4°C° 0 mm 4 mps 753 mmHg 58%
    07:00 +5°C° 0 mm 4 mps 753 mmHg 55%
    08:00 +6°C° 0 mm 4 mps 753 mmHg 52%
    09:00 +8°C° 0 mm 4 mps 753 mmHg 49%
    10:00 +10°C° 0 mm 4 mps 752 mmHg 46%
    11:00 +11°C° 0 mm 4 mps 751 mmHg 43%
    12:00 +13°C° 0 mm 4 mps 751 mmHg 41%
    13:00 +13°C° 0 mm 4 mps 750 mmHg 42%
    14:00 +13°C° 0 mm 4 mps 750 mmHg 44%
    15:00 +12°C° 0 mm 4 mps 749 mmHg 45%
    16:00 +11°C° 0 mm 4 mps 750 mmHg 49%
    17:00 +10°C° 0 mm 4 mps 750 mmHg 53%
    18:00 +7°C° 0 mm 4 mps 750 mmHg 57%
    19:00 +7°C° 0 mm 4 mps 750 mmHg 57%
    20:00 +7°C° 0 mm 4 mps 750 mmHg 57%
    21:00 +7°C° 0 mm 4 mps 750 mmHg 57%
    22:00 +7°C° 0 mm 4 mps 749 mmHg 57%
    23:00 +7°C° 0 mm 4 mps 749 mmHg 57%

    13 December, Tuesday

    Time Temperature Precipitation Wind Pressure Humidity
    00:00 +7°C° 0 mm 4 mps 749 mmHg 56%
    01:00 +7°C° 0 mm 4 mps 749 mmHg 56%
    02:00 +7°C° 0 mm 4 mps 749 mmHg 56%
    03:00 +7°C° 0 mm 4 mps 748 mmHg 56%
    04:00 +7°C° 0 mm 4 mps 748 mmHg 57%
    05:00 +7°C° 0 mm 4 mps 748 mmHg 57%
    06:00 +7°C° 0 mm 4 mps 748 mmHg 57%
    07:00 +8°C° 0 mm 4 mps 748 mmHg 55%
    08:00 +8°C° 0 mm 4 mps 748 mmHg 54%
    09:00 +10°C° 0 mm 4 mps 748 mmHg 53%
    10:00 +11°C° 0 mm 4 mps 748 mmHg 49%
    11:00 +12°C° 0 mm 5 mps 747 mmHg 45%
    12:00 +13°C° 0 mm 5 mps 747 mmHg 41%
    13:00 +13°C° 0 mm 5 mps 747 mmHg 42%
    14:00 +13°C° 0 mm 5 mps 747 mmHg 44%
    15:00 +13°C° 0 mm 5 mps 747 mmHg 45%
    16:00 +10°C° 0 mm 5 mps 747 mmHg 48%
    17:00 +10°C° 0 mm 4 mps 748 mmHg 52%
    18:00 +7°C° 0 mm 4 mps 748 mmHg 56%
    19:00 +8°C° 0 mm 3 mps 748 mmHg 57%
    20:00 +8°C° 0 mm 3 mps 749 mmHg 58%
    21:00 +7°C° 0 mm 3 mps 749 mmHg 60%
    22:00 +7°C° 0.1 mm 3 mps 749 mmHg 62%
    23:00 +7°C° 0.1 mm 3 mps 749 mmHg 65%

    14 December, Wednesday

    Time Temperature Precipitation Wind Pressure Humidity
    00:00 +7°C° 0.1 mm 3 mps 749 mmHg 67%
    01:00 +7°C° 0.4 mm 3 mps 749 mmHg 69%
    02:00 +5°C° 0.4 mm 3 mps 750 mmHg 71%
    03:00 +5°C° 0.4 mm 3 mps 750 mmHg 73%
    04:00 +5°C° 0.5 mm 3 mps 751 mmHg 73%
    05:00 +5°C° 0.5 mm 4 mps 751 mmHg 73%
    06:00 +5°C° 0.5 mm 4 mps 752 mmHg 74%
    07:00 +4°C° 0.6 mm 4 mps 752 mmHg 73%
    08:00 +4°C° 0.6 mm 4 mps 753 mmHg 72%
    09:00 +4°C° 0.6 mm 4 mps 753 mmHg 71%
    10:00 +4°C° 0.5 mm 4 mps 753 mmHg 69%
    11:00 +4°C° 0.5 mm 4 mps 753 mmHg 68%
    12:00 +5°C° 0.5 mm 4 mps 753 mmHg 66%
    13:00 +4°C° 0.3 mm 4 mps 753 mmHg 66%
    14:00 +4°C° 0.3 mm 4 mps 754 mmHg 66%
    15:00 +4°C° 0.3 mm 4 mps 754 mmHg 66%
    16:00 +3°C° 0.1 mm 3 mps 755 mmHg 67%
    17:00 +3°C° 0.1 mm 3 mps 755 mmHg 68%
    18:00 +3°C° 0.1 mm 2 mps 756 mmHg 69%
    19:00 +3°C° 0 mm 2 mps 756 mmHg 70%
    20:00 +2°C° 0 mm 2 mps 757 mmHg 70%
    21:00 +2°C° 0 mm 2 mps 757 mmHg 70%
    22:00 +2°C° 0 mm 1 mps 757 mmHg 72%
    23:00 +1°C° 0 mm 1 mps 758 mmHg 74%
    Show more